SCP
0 0 0 0 0 0 0 0 0 0 0 0 0 0 0 0 0 0 0 0 0 0 0 -0 0 0 0 0 0 -0 -0 -0 -0 -0 0 0 0 0 0 0 0 0 0 0
0 0 0 0 0 0 0 0 0 0 0 0 0 0 0 0 0 0 0 0 0 0 0 0 0 0 0 0 -0 -0 -0 -0 -0 -0 0 0 0 0 0 0 0 0 0 0
0 0 0 0 0 0 0 0 0 0 0 0 0 0 0 0 0 0 0 0 0 0 0 0 0 0 0 0 -0 -0 -0 -0 0 0 0 0 0 0 0 0 0 0 0 0
0 0 0 0 0 0 0 0 0 0 0 0 0 0 0 0 0 0 0 0 0 0 0 0 0 0 0 0 0 0 0 0 0 0 0 0 0 0 0 0 0 0 0 0
0 0 0 0 0 0 0 0 0 0 0 0 0 0 0 0 0 0 0 0 0 0 0 0 0 0 0 0 0 0 0 0 0 0 0 0 0 0 0 0 0 0 0 0
0 0 0 0 0 0 0 0 0 0 0 0 0 0 0 0 0 0 0 0 0 0 0 0 0 0 0 0 0 0 0 0 0 0 0 0 0 0 0 0 0 0 0 0
0 0 0 0 0 0 0 0 0 0 0 0 0 0 0 0 0 0 0 0 0 0 0 0 0 0 0 0 0 0 0 0 0 0 0 0 0 0 0 0 0 0 0 0
0 0 0 0 0 0 0 0 0 0 0 0 0 0 0 0 0 0 0 0 0 0 0 0 0 0 0 0 0 0 0 0 0 0 0 0 0 0 0 0 0 0 0 0
0 0 0 0 0 0 0 0 0 0 0 -0 -0 -0 0 0 -0 0 0 0 0 0 0 0 0 0 0 0 0 0 0 -0 -0 0 0 0 0 0 0 0 0 0 0 0
0 0 0 0 0 0 0 0 0 -0 -0 -0 -0 -0 -0 -0 -0 0 0 0 0 0 0 0 0 0 0 0 0 0 0 -0 -0 -0 0 0 0 0 0 0 0 0 0 0
0 0 0 0 0 0 0 0 0 -0 -0 -0 -0 -0 -0 -0 -0 0 0 0 0 0 0 0 0 0 0 0 0 0 0 0 0 0 0 0 0 0 0 0 0 0 0 0
0 0 0 0 0 0 0 0 0 0 0 0 0 0 0 0 0 0 0 0 0 0 0 0 0 0 0 0 0 0 0 0 0 0 0 0 0 0 0 0 0 0 0 0
0 0 0 0 0 0 0 0 0 0 0 0 0 0 0 0 0 0 0 0 0 0 0 0 0 0 0 0 0 0 0 0 0 0 0 0 0 0 0 0 0 0 0 0
0 0 0 0 0 0 0 0 0 0 0 0 0 0 0 0 0 0 0 0 0 0 0 0 0 0 0 0 0 0 0 0 0 0 0 0 0 0 0 0 0 0 0 0
0 0 0 0 0 0 0 0 0 0 0 0 0 0 0 0 0 0 0 0 0 0 0 0 0 0 0 0 0 0 0 0 0 0 0 0 0 0 0 0 0 0 0 0
0 0 0 0 0 0 0 0 0 0 0 0 0 0 0 0 0 0 0 0 0 0 0 0 0 0 0 0 0 0 0 0 0 0 0 0 0 0 0 0 0 0 0 0
0 0 0 0 0 0 0 0 0 0 0 0 0 0 0 0 0 0 0 0 0 0 0 0 0 0 0 -0 0 0 0 0 0 0 0 0 0 0 0 0 0 0 0 0
0 0 0 0 0 0 0 0 0 0 0 0 0 0 0 0 0 0 0 0 0 0 0 0 0 0 0 0 0 0 0 0 0 0 0 0 0 0 0 0 0 0 0 0
0 0 0 0 0 0 0 0 0 0 0 0 0 0 0 0 0 0 0 0 0 0 0 0 0 0 0 0 0 0 0 0 0 0 0 0 0 0 0 0 0 0 0 0
0 0 0 0 0 0 0 0 0 0 0 0 0 0 0 0 0 0 0 0 0 0 0 0 0 0 0 0 0 0 0 0 0 0 0 0 0 0 0 0 0 0 0 0
0 0 0 0 0 0 0 0 0 0 0 0 0 0 0 0 0 0 0 0 0 0 0 0 0 0 0 0 0 0 0 0 0 0 0 0 0 0 0 0 0 0 0 0
0 0 0 0 0 0 0 0 0 0 0 0 0 0 0 0 0 0 0 0 0 0 0 0 0 0 0 0 0 0 0 0 0 0 0 0 0 0 0 0 0 0 0 0
0 0 0 0 0 0 0 0 0 0 0 0 0 0 0 0 0 0 0 0 0 0 0 0 0 0 0 0 0 0 0 0 0 0 0 0 0 0 0 0 0 0 0 0
0 0 0 0 0 0 0 0 0 0 0 0 0 0 0 0 0 0 0 0 0 0 0 0 0 0 0 0 0 0 0 0 0 0 0 0 0 0 0 0 0 0 0 0
0 0 0 0 0 0 0 0 0 0 0 0 0 0 0 0 0 0 0 0 0 0 0 0 0 0 0 0 0 0 0 0 0 0 0 0 0 0 0 0 0 0 0 0
0 0 0 0 0 0 0 0 0 0 0 0 0 0 0 0 0 0 0 0 0 0 0 0 0 0 0 0 0 0 0 0 0 0 0 0 0 0 0 0 0 0 0 0
0 0 0 0 0 0 0 0 0 0 0 0 0 0 0 0 0 0 0 0 0 0 0 0 0 0 0 0 0 0 0 0 0 0 0 0 0 0 0 0 0 0 0 0
Wind_Speed
7 7 5 7 8 7 9 9 9 10 10 12 8 6 6 4 3 3 3 4 6 6 5 5 4 4 5 4 4 5 5 4 4 3 3 3 3 3 3 3 3 3 3 3
5 5 5 8 10 9 10 9 11 11 14 10 6 3 4 4 4 5 5 5 5 6 6 6 6 5 5 5 5 4 5 5 4 3 3 3 3 3 3 3 3 2 3 3
5 5 4 8 8 10 8 8 8 11 12 5 3 4 5 4 4 5 5 5 5 6 7 7 6 6 6 5 4 4 4 4 4 4 3 3 3 2 3 3 2 3 3 3
3 2 7 8 2 5 6 6 6 6 6 4 5 4 3 3 4 5 5 5 5 5 5 5 5 4 4 4 4 4 4 4 4 4 3 3 2 3 3 2 3 3 3 4
2 4 9 8 4 3 4 4 3 5 5 4 3 2 3 2 3 4 4 4 4 5 4 4 4 4 4 4 4 4 4 4 4 4 4 3 3 3 3 2 3 3 3 4
3 4 7 6 3 1 2 3 3 2 2 2 1 1 5 4 2 3 3 2 2 2 2 3 4 4 5 4 4 5 5 5 4 4 4 4 4 3 3 3 3 3 4 4
5 6 9 6 2 1 2 4 2 1 2 1 3 5 5 4 2 2 1 1 1 2 3 4 4 4 5 4 6 5 4 4 4 4 4 4 3 2 2 2 2 3 4 4
5 6 9 3 2 3 4 2 2 2 2 3 4 4 3 3 3 2 2 1 2 2 2 2 3 4 4 5 5 4 3 4 4 4 3 3 3 2 2 2 2 3 3 4
9 8 4 2 4 3 2 3 4 3 4 4 4 4 4 3 3 3 3 2 2 2 2 2 3 4 5 5 4 3 3 4 3 3 3 3 3 3 2 2 2 3 3 4
5 7 5 4 4 4 4 5 5 5 5 4 5 5 5 4 4 3 3 3 2 2 3 3 3 4 5 4 3 4 4 4 3 3 3 3 3 3 3 3 3 3 4 4
6 7 6 5 4 4 4 4 4 4 4 4 5 5 5 5 5 4 4 3 3 3 4 5 4 4 4 4 4 4 4 4 3 3 3 3 3 4 4 5 5 5 4 4
8 7 6 7 5 5 5 6 5 5 6 5 5 6 5 5 5 4 4 4 3 4 4 5 4 5 4 4 5 5 4 4 3 3 3 3 3 3 5 6 8 10 9 7
9 7 7 7 6 5 6 6 5 5 6 6 5 5 5 5 4 4 4 4 4 5 5 4 4 4 4 4 4 5 5 4 3 3 3 3 3 3 3 4 5 7 9 9
5 4 6 6 7 6 6 6 5 5 5 5 4 4 4 4 3 4 4 4 4 4 4 4 4 4 4 3 4 4 4 4 4 3 3 3 3 3 3 3 4 4 5 8
6 5 7 7 6 5 5 4 4 4 4 4 3 3 3 3 4 4 4 3 2 3 3 3 3 4 3 3 3 4 4 3 3 3 3 3 3 3 3 4 4 5 4 5
5 5 5 5 5 5 4 4 4 5 4 4 4 3 3 3 3 3 2 1 2 3 3 3 4 4 2 2 3 3 3 5 4 2 2 2 2 3 3 4 4 4 5 5
4 5 4 5 5 5 4 4 4 5 4 4 4 3 2 1 1 2 2 2 2 2 2 3 4 3 2 2 2 2 2 3 4 2 3 3 3 4 4 4 4 5 5 6
4 5 5 4 5 5 4 4 3 3 3 4 3 2 1 1 2 2 2 2 2 2 3 3 3 2 2 2 2 2 2 2 2 3 3 3 3 4 4 4 5 6 5 6
3 3 4 4 3 3 3 3 3 3 3 2 2 2 2 2 2 2 1 1 1 3 4 3 3 2 2 3 2 1 2 2 2 2 3 5 4 3 4 5 5 5 5 5
3 3 3 3 3 2 2 3 2 2 2 1 1 1 1 2 1 1 1 2 3 3 3 3 3 2 2 2 2 2 2 3 3 3 3 3 4 4 4 5 5 5 5 5
4 4 3 3 3 3 2 2 2 2 2 1 1 2 2 3 2 1 1 3 4 3 3 4 2 2 2 3 3 2 2 2 3 3 3 4 4 4 4 5 5 5 5 5
4 3 3 3 3 4 4 3 2 2 2 2 2 2 2 3 3 2 3 4 4 5 3 2 2 4 5 4 2 2 2 3 3 3 3 4 4 4 5 5 5 5 5 5
3 3 3 3 3 4 4 3 3 2 2 3 3 3 3 3 2 2 4 3 3 5 3 3 5 7 8 3 2 2 3 3 3 3 4 4 4 4 5 5 5 5 5 5
3 3 3 3 3 3 4 4 3 3 3 3 3 3 3 3 3 3 4 6 7 7 4 5 8 9 7 2 2 2 3 3 4 4 4 4 4 4 4 5 5 5 5 5
3 3 3 3 3 3 4 4 4 4 3 3 4 4 3 3 3 4 3 4 7 7 4 6 8 8 4 2 3 3 3 4 4 4 4 4 4 4 4 4 5 5 5 5
3 3 3 3 3 3 3 3 3 3 3 4 4 3 3 3 3 4 3 4 5 7 5 3 4 5 3 3 3 4 4 4 5 4 4 4 5 5 5 5 6 5 5 5
4 3 3 3 3 3 3 3 3 4 4 4 5 4 3 3 3 4 4 4 4 4 4 4 3 3 3 3 4 4 4 4 4 4 4 4 4 5 5 6 5 5 5 5
Wind_Direction
252 258 243 243 245 221 209 213 222 245 251 264 265 256 252 243 229 217 214 202 196 194 196 193 191 189 186 186 179 172 169 179 195 195 191 193 198 206 210 210 213 215 218 231
279 266 260 262 252 233 230 229 239 258 268 263 270 259 253 246 224 219 219 212 204 197 195 197 197 194 190 190 186 172 177 191 192 185 189 198 207 208 209 213 214 211 220 230
275 297 315 272 238 216 219 218 212 237 253 274 277 253 242 237 227 225 224 215 208 203 202 202 200 192 192 192 178 172 184 192 189 188 197 207 207 203 211 217 212 222 232 234
270 332 252 248 243 206 219 246 232 246 267 264 255 262 254 229 222 236 230 220 214 206 204 202 193 187 180 173 173 181 191 198 197 193 204 206 202 215 219 214 215 224 233 237
201 251 274 291 267 197 198 267 249 241 271 292 308 349 313 276 232 230 230 225 215 204 195 186 184 176 162 173 178 186 200 206 204 197 203 205 215 227 220 214 227 230 235 236
190 228 251 259 280 232 125 278 295 246 272 302 35 351 283 302 293 262 250 230 210 188 167 175 186 165 165 185 190 206 211 210 203 196 202 212 221 226 216 213 229 237 248 244
208 235 262 263 284 81 182 261 307 283 263 230 224 233 265 299 299 279 253 243 200 174 185 198 182 165 180 196 212 217 207 202 201 201 208 215 219 221 221 223 234 247 259 263
186 218 253 247 126 183 231 270 285 275 263 253 255 269 277 282 278 277 270 252 205 190 214 215 183 174 196 218 222 208 198 202 209 210 212 208 209 227 225 218 235 255 265 277
198 219 247 209 209 240 223 244 256 250 257 249 255 261 265 265 264 266 256 247 229 205 222 236 209 193 208 227 210 198 198 211 218 218 216 205 204 218 230 223 228 247 253 268
251 266 275 272 268 272 246 244 255 253 252 246 251 257 257 256 258 257 254 245 233 217 227 244 234 220 221 222 200 192 205 217 217 214 223 221 213 210 215 224 232 242 248 259
257 275 292 279 261 264 276 270 273 274 258 250 251 258 251 254 255 251 253 249 229 221 230 241 240 235 230 216 192 200 212 218 218 219 222 229 227 221 221 223 219 228 237 238
245 247 247 266 274 276 272 268 264 267 273 268 246 249 251 251 249 245 245 243 238 237 238 244 241 242 236 215 196 198 212 218 219 220 223 225 238 267 251 244 257 257 256 255
253 266 259 269 275 267 260 265 264 258 258 268 266 254 250 253 252 245 244 239 239 243 245 246 244 247 241 217 198 201 212 219 218 219 221 224 226 238 274 288 276 272 269 271
260 274 276 273 272 275 271 269 267 268 265 261 263 264 258 257 258 248 246 246 249 252 251 246 245 251 247 218 204 211 217 224 222 222 223 225 228 232 238 259 284 287 281 280
268 258 258 273 280 283 282 280 282 282 282 281 274 265 259 258 260 261 264 260 255 254 254 250 252 261 256 219 208 214 216 222 221 222 222 224 229 234 241 248 260 273 286 288
281 283 276 277 280 287 292 285 279 280 281 278 278 275 269 266 274 284 283 256 242 252 254 250 254 260 256 229 217 220 226 235 232 222 222 227 231 238 246 251 258 264 271 277
277 282 286 292 290 288 286 280 274 279 285 283 281 282 283 289 303 306 306 298 267 264 264 258 266 275 262 236 219 221 225 235 240 235 229 234 239 243 248 252 258 264 267 271
251 259 263 269 275 282 288 290 286 284 281 280 288 289 274 262 269 280 293 315 331 318 299 281 279 287 278 257 230 220 220 228 228 230 237 243 248 245 249 255 260 266 273 278
295 280 280 277 273 271 277 284 292 298 300 299 297 287 280 271 267 277 301 322 314 303 303 303 301 296 282 271 252 219 221 233 244 243 243 260 267 255 255 258 263 265 270 274
323 315 312 313 312 297 293 299 301 305 302 297 297 305 305 298 289 279 284 277 267 268 287 302 303 289 279 271 264 227 228 234 242 251 250 248 253 257 258 262 266 269 271 271
325 325 328 327 326 330 322 311 309 307 312 310 269 264 275 287 290 276 274 288 291 286 286 296 297 286 278 275 272 242 239 247 253 256 259 260 261 264 267 268 270 272 271 272
324 328 330 332 333 329 327 327 319 308 314 316 304 287 285 291 295 288 261 257 277 295 296 282 280 283 287 287 262 248 249 252 255 258 260 263 266 269 270 270 270 271 270 269
315 315 317 316 309 308 318 321 312 300 295 293 290 283 276 275 271 272 286 283 280 294 296 274 286 294 299 294 268 261 259 259 259 259 260 263 265 267 271 273 272 271 269 269
313 312 307 306 316 323 317 313 313 305 293 288 282 276 274 283 285 260 257 287 299 302 290 287 298 301 305 292 268 263 263 263 262 262 262 263 263 264 267 270 273 271 270 271
306 308 312 320 320 307 299 303 308 305 301 294 290 285 273 256 261 278 280 281 292 301 292 293 300 304 300 272 263 261 261 260 263 264 257 261 263 264 266 267 267 268 268 267
303 304 301 295 289 292 297 299 298 298 299 299 299 293 290 284 276 277 280 279 282 294 292 283 287 293 280 270 266 264 262 274 281 275 265 263 261 262 264 264 264 263 265 267
301 298 300 304 302 295 290 287 286 291 293 291 294 296 296 296 294 291 289 287 286 285 282 280 278 274 272 271 271 268 266 266 266 266 266 264 262 261 263 263 265 265 265 265